EHI
0 0 0 0 0 0 0 0 0 0 0 0 0 0 0 0 0 0 0 0 0 0 0 0 0 0 0 0 0 0 0 0 0 0 0 0 0 0 0 0 0 0 0
0 0 0 0 0 0 0 0 0 0 0 0 0 0 0 0 0 0 0 0 0 0 0 0 0 0 0 0 0 0 0 0 0 0 0 0 0 0 0 0 0 0 0
0 0 0 0 0 0 0 0 0 0 0 0 0 0 0 0 0 0 0 0 0 0 0 0 0 0 0 0 0 0 0 0 0 0 0 0 0 0 0 0 0 0 0
0 0 0 0 0 0 0 0 0 0 0 0 0 0 0 0 0 0 0 0 0 0 0 0 0 0 0 0 0 0 0 0 0 0 0 0 0 0 0 0 0 0 0
0 0 0 0 0 0 0 0 0 0 0 0 0 0 0 0 0 0 0 0 0 0 0 0 0 0 0 0 0 0 0 0 0 0 0 0 0 0 0 0 0 0 0
0 0 0 0 0 0 0 0 0 0 0 0 0 0 0 0 0 0 0 0 0 0 0 0 0 0 0 0 0 0 0 0 0 0 0 0 0 0 0 0 0 0 0
0 0 0 0 0 0 0 0 0 0 0 0 0 0 0 0 0 0 0 0 0 0 0 0 0 0 0 0 0 0 0 0 0 0 0 0 0 0 0 0 0 0 0
0 0 0 0 0 0 0 0 0 0 0 0 0 0 0 0 0 0 0 0 0 0 0 0 0 0 0 0 0 0 0 0 0 0 0 0 0 0 0 0 0 0 0
0 0 0 0 0 0 0 0 0 0 0 0 0 0 0 0 0 0 0 0 0 0 0 0 0 0 0 0 0 0 0 0 0 0 0 0 0 0 0 0 0 0 0
0 0 0 0 0 0 0 0 0 0 0 0 0 0 0 0 0 0 0 0 0 0 0 0 0 0 0 0 0 0 0 0 0 0 0 0 0 0 0 0 0 0 0
0 0 0 0 0 0 0 0 0 0 0 0 0 0 0 0 0 0 0 0 0 0 0 0 0 0 0 0 0 0 0 0 0 0 0 0 0 0 0 0 0 0 0
0 0 0 0 0 0 0 0 0 0 0 0 0 0 0 0 0 0 0 0 0 0 0 0 0 0 0 0 0 0 0 0 0 0 0 0 0 0 1 0 0 0 0
0 0 0 0 0 0 0 0 0 0 0 0 0 0 0 0 0 0 0 0 0 0 0 0 0 0 0 0 0 0 0 0 0 0 0 0 0 0 0 0 0 0 0
0 0 0 0 0 0 0 0 0 0 0 0 0 0 0 0 0 0 0 0 0 0 0 0 0 0 0 0 0 0 0 0 0 0 0 0 0 0 0 0 0 0 0
0 0 0 0 0 0 0 0 0 0 0 0 0 0 0 0 0 0 0 0 0 0 0 0 0 0 0 0 0 0 0 0 0 0 0 0 0 0 0 0 0 0 0
0 0 0 0 0 0 0 0 0 0 0 0 0 0 0 0 0 0 0 0 0 0 0 0 0 0 0 0 0 0 0 0 0 0 0 0 0 0 0 0 0 0 0
0 0 0 0 0 0 0 0 0 0 0 0 0 0 0 0 0 0 0 0 0 0 0 0 0 0 0 0 0 0 0 0 0 0 0 0 0 0 0 0 0 0 0
0 0 0 0 0 0 0 0 0 0 0 0 0 0 0 0 0 0 0 0 0 0 0 0 0 0 0 0 0 0 0 0 0 0 0 0 0 0 0 0 0 0 0
0 0 0 0 0 0 0 0 0 0 0 0 0 0 0 0 0 0 0 0 0 0 0 0 0 0 0 0 0 0 0 0 0 0 0 0 0 0 0 0 0 0 0
0 0 0 0 0 0 0 0 0 0 0 0 0 0 0 0 0 0 0 0 0 0 0 0 0 0 0 0 0 0 0 0 0 0 0 0 0 0 0 0 0 0 0
0 0 0 0 0 0 0 0 0 0 0 0 0 0 0 0 0 0 0 0 0 0 0 0 0 0 0 0 0 0 0 0 0 0 0 0 0 0 0 0 0 0 0
0 0 0 0 0 0 0 0 0 0 0 0 0 0 0 0 0 0 0 0 0 0 0 0 0 0 0 0 0 0 0 0 0 0 0 0 0 0 0 0 0 0 0
0 0 0 0 0 0 0 0 0 0 0 0 0 0 0 0 0 0 0 0 0 0 0 0 0 0 0 0 0 0 0 0 0 0 0 0 0 0 0 0 0 0 0
0 0 0 0 0 0 0 0 0 0 0 0 0 0 0 0 0 0 0 0 0 0 0 0 0 0 0 0 0 0 0 0 0 0 0 0 0 0 0 0 0 0 0
0 0 0 0 0 0 0 0 0 0 0 0 0 0 0 0 0 0 0 0 0 0 0 0 0 0 0 0 0 0 0 0 0 0 0 0 0 0 0 0 0 0 0
0 0 0 0 0 0 0 0 0 0 0 0 0 0 0 0 0 0 0 0 0 0 0 0 0 0 0 0 0 0 0 0 0 0 0 0 0 0 0 0 0 0 0
Wind_Speed
3 2 2 2 2 2 2 2 2 2 3 3 3 4 4 3 3 3 2 7 7 7 7 7 8 8 8 7 7 7 7 7 7 6 6 6 6 6 5 6 6 5 5
3 3 2 2 2 2 2 2 2 2 2 2 2 2 3 3 3 3 2 4 7 7 7 7 8 8 8 7 7 7 7 7 7 6 6 6 6 6 5 5 5 5 5
4 3 3 2 2 2 2 2 2 2 2 2 2 2 2 3 3 3 3 2 3 6 7 8 8 8 8 8 8 8 7 7 7 7 6 6 6 6 6 5 5 5 5
4 4 3 2 2 2 2 2 2 2 1 1 1 1 1 2 3 3 3 3 2 3 5 8 8 8 8 9 9 9 9 8 8 8 8 7 7 7 7 6 6 6 5
5 4 3 3 3 2 2 2 2 2 2 2 1 1 0 1 1 2 3 4 4 3 3 4 7 8 9 10 9 9 9 9 9 9 9 9 9 8 8 8 7 7 7
5 4 3 3 4 3 2 2 2 2 1 2 1 1 0 1 1 3 4 3 4 5 4 4 3 4 8 9 9 9 9 9 9 9 10 10 10 9 9 8 8 8 8
5 4 3 4 4 3 4 4 3 3 1 2 2 1 1 1 1 2 3 3 4 5 5 5 4 3 3 6 7 9 10 10 9 10 10 10 10 9 9 10 10 9 10
5 5 4 4 4 3 4 4 3 3 2 2 3 2 1 2 2 2 2 4 4 3 5 5 5 5 4 3 4 8 9 9 9 9 10 10 9 9 9 9 9 10 10
6 5 5 4 4 4 4 4 4 5 3 2 2 3 3 3 2 2 2 2 3 3 4 4 5 6 5 4 4 6 8 8 9 9 8 9 9 8 9 9 9 9 10
5 6 6 6 5 4 4 4 4 3 4 3 1 1 2 3 2 1 2 1 2 3 3 4 4 5 5 5 5 6 7 7 8 8 8 7 8 8 8 9 9 9 8
4 5 5 5 5 4 4 4 4 4 3 4 3 2 2 1 1 2 1 1 1 1 2 3 3 3 4 4 4 5 6 7 6 6 6 6 6 7 7 8 8 8 8
2 4 5 5 5 4 5 5 4 5 4 4 3 3 3 3 3 3 2 2 1 1 1 1 2 2 3 3 5 5 6 6 6 5 5 4 4 4 5 6 6 6 6
3 4 5 4 4 4 4 4 4 4 4 4 4 3 3 2 2 3 3 2 1 1 1 1 1 1 1 2 3 4 3 4 4 4 3 3 3 2 2 2 2 2 2
4 4 4 5 5 5 5 4 3 4 3 4 4 4 2 2 3 3 3 3 1 0 1 1 1 2 1 1 1 1 0 1 1 2 2 2 2 2 2 1 1 2 2
3 4 5 5 4 4 4 4 3 4 4 4 4 4 3 2 2 2 2 3 4 3 2 1 1 2 2 1 1 1 1 3 3 2 2 2 2 2 2 3 3 3 3
3 4 4 4 4 4 4 4 3 3 4 3 3 3 3 2 2 2 2 2 3 3 2 1 0 2 2 2 4 3 4 6 6 6 5 5 5 5 5 5 5 5 5
3 3 3 3 4 4 4 4 3 3 4 3 3 3 3 2 2 2 2 2 2 3 3 1 1 2 3 3 4 4 4 4 5 9 9 8 8 8 7 7 7 6 6
3 3 3 3 3 3 3 4 4 3 3 3 3 3 3 2 2 1 2 2 2 3 3 3 1 2 3 3 4 5 5 5 5 9 10 10 9 9 9 8 7 7 7
3 3 3 3 3 2 3 3 3 3 3 3 3 3 3 3 2 1 2 2 1 2 2 3 2 1 2 2 3 5 6 4 5 7 9 10 10 10 9 8 7 7 6
3 3 3 3 2 2 3 3 3 3 3 3 2 2 2 3 3 3 2 3 3 3 4 4 3 2 2 2 2 3 4 5 5 5 7 8 9 10 9 8 8 7 6
3 3 4 3 2 2 2 4 4 4 4 4 3 3 3 4 5 4 3 3 4 4 4 4 3 3 2 2 1 1 3 3 5 4 4 5 4 4 5 6 7 7 6
4 4 4 3 3 2 4 6 6 5 5 5 4 4 4 5 8 9 9 8 6 5 5 4 3 3 2 1 1 2 2 2 2 3 3 3 3 4 3 4 6 6 6
5 5 4 4 4 4 6 7 8 6 5 4 4 4 4 5 7 7 10 12 11 10 7 5 5 3 2 1 2 3 2 2 2 1 1 2 3 3 3 5 7 7 7
5 4 4 4 5 5 8 9 10 7 6 6 5 5 5 5 6 7 9 9 8 8 7 5 5 4 3 2 2 3 3 4 3 3 2 2 2 2 3 3 6 8 7
5 5 5 5 6 6 9 10 9 6 6 6 5 6 6 6 7 9 9 9 8 7 10 13 11 10 10 8 5 4 3 3 3 2 3 2 1 1 2 2 4 7 7
6 6 6 6 6 6 7 9 8 6 6 6 5 6 8 7 7 8 7 8 8 5 5 7 8 9 8 9 9 4 3 3 2 2 2 2 2 1 1 2 3 4 4
Wind_Direction
141 133 121 113 111 107 107 105 105 109 111 115 132 141 145 149 151 157 168 176 175 175 172 170 168 169 167 165 163 163 163 163 158 159 160 158 158 159 159 159 158 160 160
154 148 142 137 135 129 126 125 122 121 116 121 130 146 155 155 158 164 168 186 187 185 185 185 183 182 182 180 179 183 183 178 174 175 176 175 177 177 177 174 175 178 177
165 157 154 161 168 143 131 114 106 101 119 127 132 152 158 164 169 173 175 183 196 200 200 200 198 196 194 193 194 199 198 192 188 189 189 189 190 192 192 194 194 194 193
171 159 162 175 169 145 136 131 125 115 115 134 154 183 160 172 185 186 189 194 199 211 216 216 209 207 208 209 209 211 212 207 203 201 202 203 204 204 203 207 209 206 206
175 166 172 175 162 148 148 156 132 142 151 156 175 180 194 206 208 212 210 210 210 216 222 234 229 222 222 224 225 223 220 218 214 213 214 215 216 214 212 215 217 216 217
176 169 170 169 159 150 155 152 136 128 136 150 153 107 13 239 223 230 230 222 222 226 225 230 236 236 236 236 235 234 232 228 222 221 224 225 224 220 218 220 222 223 223
177 172 172 162 163 167 171 160 139 139 130 124 97 45 356 323 241 238 235 234 237 233 226 226 226 230 238 242 244 242 241 238 230 226 227 229 230 226 223 225 227 229 230
178 181 173 171 169 161 162 163 151 141 145 147 134 118 10 339 313 248 225 228 238 232 233 231 226 227 231 234 239 244 245 244 239 233 228 228 229 227 227 229 230 232 236
180 176 175 172 173 170 177 179 169 159 162 167 163 148 154 221 284 312 262 240 234 226 235 237 234 233 230 231 238 246 251 252 250 247 239 232 229 228 229 232 234 236 239
179 178 175 175 176 175 177 185 176 167 155 167 179 178 161 158 162 288 318 286 250 238 240 240 239 234 229 230 232 234 243 247 249 250 244 237 231 229 231 235 240 243 243
183 180 177 175 176 179 183 182 169 173 171 170 173 165 149 129 143 161 249 307 321 272 245 240 239 237 232 231 235 238 237 239 242 246 245 240 235 236 235 239 244 245 244
189 189 180 180 181 182 187 188 180 179 183 177 175 174 168 166 181 174 194 230 258 297 290 255 245 245 237 232 239 237 232 233 233 235 240 242 241 244 249 248 248 249 252
197 200 187 183 184 189 190 180 175 183 185 182 184 191 194 192 167 163 167 189 218 289 331 359 282 267 250 234 245 240 237 228 225 225 222 222 223 227 245 255 257 264 268
203 199 191 190 191 187 187 176 178 190 185 189 194 188 192 203 187 177 172 163 173 276 337 319 356 351 316 286 276 233 251 154 200 210 206 199 185 178 172 153 114 83 70
198 193 191 191 191 185 182 174 184 192 180 188 193 190 197 207 196 195 181 173 170 193 234 294 345 358 355 39 19 92 96 73 86 100 121 133 128 127 124 123 115 105 92
188 179 182 185 184 181 181 178 183 185 179 191 189 187 196 206 196 191 188 187 180 178 196 202 0 10 22 54 57 71 81 78 73 81 84 89 94 95 95 98 98 90 84
175 178 177 175 174 174 173 173 181 179 184 191 187 185 199 194 188 190 179 170 171 163 175 169 56 27 41 51 54 62 69 72 70 73 78 79 82 83 83 83 82 82 79
164 164 164 165 174 173 170 174 182 180 183 192 191 179 188 175 176 177 168 175 175 170 166 169 115 43 49 53 61 64 62 72 74 70 73 76 79 80 80 80 78 74 70
150 150 153 160 164 165 167 172 171 164 169 181 181 177 176 157 161 154 147 147 145 140 136 143 128 67 59 60 67 66 63 52 66 68 72 72 74 74 75 76 77 74 71
141 139 133 136 142 144 142 141 142 136 135 133 132 142 155 158 163 154 138 132 124 115 112 116 115 87 65 57 74 79 71 53 50 50 58 65 65 65 64 67 70 70 68
116 114 112 110 113 125 135 137 134 132 125 114 100 97 99 106 112 121 126 131 130 123 116 113 108 96 80 76 79 74 94 84 55 40 49 49 51 53 51 51 56 59 61
89 93 96 101 99 101 109 121 126 122 118 117 112 95 85 83 89 91 93 93 104 122 129 123 116 115 109 98 89 103 110 106 82 21 46 49 48 52 42 45 41 48 51
90 89 89 92 90 85 96 107 111 110 105 100 98 95 91 82 85 89 82 77 72 78 97 122 118 118 119 137 126 103 83 82 92 42 59 56 31 42 35 38 35 41 42
93 89 85 85 84 81 92 101 101 94 87 80 78 88 95 86 92 100 92 81 71 61 66 77 88 83 81 83 97 111 109 95 76 44 33 64 21 20 22 19 22 29 28
93 88 85 83 83 78 84 93 97 95 88 78 73 76 87 86 90 102 101 96 84 70 67 74 74 72 70 70 83 96 92 93 73 40 21 54 32 8 10 12 12 14 12
95 90 80 76 83 82 81 90 98 103 99 89 75 68 75 88 89 98 105 108 100 83 80 73 64 57 58 57 57 64 91 95 87 64 21 33 29 13 21 9 355 359 2